Sitka, Alaska, United States (99835)
Lat: 57.05N, Lon: 135.33W
Wx Zone: AKZ023
Local Info
Past Weather Observations for Wednesday, February 10, 2016

NOTE: This archive is for the closest National Weather Service station to Sitka. Information may differ from the station used for current weather conditions.

Click here for Long-term Archive

Time Weather Temperature Dewpoint Humidity Pressure Winds Precip Visibility
23:53
Overcast
48°F / 9°C 39°F / 4°C 71% 29.83 in
(1010 mb)
SE 12.7 mph
(SE 20 kph)
0.01 in
(0.25 mm)
10SM
22:53
Overcast
48°F / 9°C 39°F / 4°C 71% 29.83 in
(1010 mb)
E 15 mph
(E 24 kph)
- 10SM
21:53
Overcast
48°F / 9°C 41°F / 5°C 76% 29.8 in
(1009 mb)
ESE 10.4 mph
(ESE 17 kph)
0.00 in
(0.00 mm)
10SM
20:53
Overcast
Light Rain
46°F / 8°C 43°F / 6°C 87% 29.77 in
(1008 mb)
SE 9.2 mph
(SE 15 kph)
0.02 in
(0.51 mm)
10SM
19:53
Overcast
Light Rain
48°F / 9°C 43°F / 6°C 82% 29.74 in
(1007 mb)
SE 10.4 mph
(SE 17 kph)
0.00 in
(0.00 mm)
10SM
18:53
Overcast
Light Rain
48°F / 9°C 43°F / 6°C 82% 29.68 in
(1005 mb)
ESE 11.5 mph
(ESE 19 kph)
0.00 in
(0.00 mm)
10SM
17:53
Overcast
48°F / 9°C 45°F / 7°C 87% 29.65 in
(1004 mb)
SSE 8.1 mph
(SSE 13 kph)
0.03 in
(0.76 mm)
10SM
17:01
Overcast
Light Rain
48°F / 9°C 45°F / 7°C 87% 29.62 in
(1003 mb)
S 13.8 mph
(S 22 kph)
0.01 in
(0.25 mm)
9SM
16:53
Overcast
Light Rain
50°F / 10°C 45°F / 7°C 82% 29.62 in
(1003 mb)
S 12.7 mph
(S 20 kph)
0.01 in
(0.25 mm)
9SM
15:53
Overcast
52°F / 11°C 41°F / 5°C 67% 29.56 in
(1001 mb)
SE 15 mph
(SE 24 kph)
- 10SM
14:53
Overcast
52°F / 11°C 41°F / 5°C 67% 29.56 in
(1001 mb)
SE 13.8 mph
(SE 22 kph)
- 10SM
13:53
Mostly Cloudy
52°F / 11°C 43°F / 6°C 72% 29.59 in
(1002 mb)
ESE 16.1 mph
(ESE 26 kph)
- 10SM
12:53
Partly Cloudy
54°F / 12°C 41°F / 5°C 63% 29.62 in
(1003 mb)
SE 15 mph
(SE 24 kph)
- 10SM
11:53
Mostly Cloudy
52°F / 11°C 43°F / 6°C 72% 29.65 in
(1004 mb)
ESE 15 mph
(ESE 24 kph)
- 10SM
10:53
Overcast
48°F / 9°C 46°F / 8°C 94% 29.65 in
(1004 mb)
Calm 0.00 in
(0.00 mm)
10SM
09:53
Overcast
Light Rain
46°F / 8°C 45°F / 7°C 93% 29.68 in
(1005 mb)
N 6.9 mph
(N 11 kph)
0.00 in
(0.00 mm)
10SM
08:53
Overcast
46°F / 8°C 45°F / 7°C 93% 29.68 in
(1005 mb)
NW 4.6 mph
(NW 7 kph)
- 10SM
07:53
Overcast
46°F / 8°C 45°F / 7°C 93% 29.65 in
(1004 mb)
Calm 0.00 in
(0.00 mm)
10SM
06:53
Overcast
45°F / 7°C 45°F / 7°C 100% 29.68 in
(1005 mb)
NNW 4.6 mph
(NNW 7 kph)
- 10SM
05:53
Overcast
46°F / 8°C 45°F / 7°C 93% 29.65 in
(1004 mb)
N 3.5 mph
(N 6 kph)
0.01 in
(0.25 mm)
10SM
04:53
Overcast
45°F / 7°C 45°F / 7°C 100% 29.65 in
(1004 mb)
N 4.6 mph
(N 7 kph)
0.01 in
(0.25 mm)
10SM
03:53
Overcast
46°F / 8°C 45°F / 7°C 93% 29.65 in
(1004 mb)
NNW 5.8 mph
(NNW 9 kph)
- 10SM
02:53
Overcast
46°F / 8°C 45°F / 7°C 93% 29.65 in
(1004 mb)
NW 5.8 mph
(NW 9 kph)
0.00 in
(0.00 mm)
10SM
01:53
Overcast
Light Rain
46°F / 8°C 45°F / 7°C 93% 29.68 in
(1005 mb)
NW 11.5 mph
(NW 19 kph)
0.00 in
(0.00 mm)
10SM
00:53
Overcast
Light Rain
46°F / 8°C 45°F / 7°C 93% 29.68 in
(1005 mb)
NNW 6.9 mph
(NNW 11 kph)
0.01 in
(0.25 mm)
10SM
Time Weather Temperature Dewpoint Humidity Pressure Winds Precip Visibility


Weather for websites

WeatherForYou.com, LLC is not responsible for any damages or problems caused by this service. Current weather conditions are obtained from the closest station including government and personal stations which may have varying degrees of accuracy. Weather forecasts are derived from the NOAA NDFD. Like all things, this site belongs to Jesus Christ... He just trusts us to maintain it. If you have any questions or comments email webmaster@weatherforyou.com

Copyright © 2016, WeatherForYou.com LLC. All rights reserved.